Бриндакит

Россия / Республика Саха (Якутия)     60°03′58″N   137°41′09″E
темп.,
°C
ветер,
м/с
пор.,
м/с
влажн.,
%
обл.,
%
осадки,
мм/ч
давл.,
гПа
погр.,
м
3 марта, ср
ср301:00−31сз1298100 0.1 102144
04:00−32сз1299100 0.2 102024
07:00−32сз1198100 0.1 102025
10:00−31сз1296100 0.1 1019185
13:00−29зсз2286100 0.0 1017551
16:00−29сз2387100 0.1 1015617
19:00−34сз229799 0.0 101619
22:00−36сз229994 0.0 101620
4 марта, чт
чт401:00−37сз2299100 0.0 101624
04:00−37сз229999 0.0 101625
07:00−37сз2210095 0.0 101629
10:00−33сз389698 0.0 1015432
13:00−30сз51185100 0.0 1014884
16:00−30сз61187100 0.0 1014934
19:00−34сз51094100 0.0 1016514
22:00−36сз499697 0.1 1018449
5 марта, пт
пт501:00−39сз399989 0.0 1019318
04:00−40сз389986 0.0 1020237
07:00−41сз489984 0.0 1021255
10:00−38сз5109586 0.0 1021525
13:00−35сз6138999 0.0 1020772
16:00−36сз5118999 0.0 1020697
19:00−40сз459794 0.0 1022138
22:00−41ссз449995 0.0 102382
6 марта, сб
сб601:00−41ссз3499100 0.0 102475
04:00−41ссз4499100 0.1 1024104
07:00−41ссз3499100 0.0 102472
10:00−40ссз349999 0.0 1024190
13:00−36ссз3492100 0.0 1022441
16:00−34сз3589100 0.0 1022596
19:00−38сз229898 0.0 102323
22:00−40сз229996 0.0 102425
7 марта, вс
вс701:00−41ссз3310097 0.0 102437
04:00−41ссз339997 0.0 102536
07:00−42ссз339996 0.0 102535
10:00−38ссз349894 0.0 1024164
13:00−33сз239291 0.0 1023318
16:00−30сз239192 0.0 1022376
19:00−34ссз229998 0.0 102319
22:00−36ссз229999 0.0 102419